FW9258 Weather Reports


Display with metric or nautical units.
time (UTC)temp
F
wind
direction
speed
MPH
gust
MPH
rain 1hr
in
rain 24hr
in
rain mn
in
humidity
%
barometer
mb
20260510224539 44 299 4.0 6.0 0.00 0.00 0.00 81 1016.3
20260510224019 44 329 4.0 6.0 0.00 0.00 0.00 81 1016.4
20260510223515 44 330 3.0 7.0 0.00 0.00 0.00 81 1016.4
20260510223033 44 316 4.0 7.0 0.00 0.00 0.00 81 1016.4
20260510222522 44 335 4.0 6.0 0.00 0.00 0.00 81 1016.4
20260510222019 44 336 3.0 6.0 0.00 0.00 0.00 81 1016.5
20260510221533 45 327 3.0 6.0 0.00 0.00 0.00 80 1016.5
20260510221015 45 327 2.0 7.0 0.00 0.00 0.00 80 1016.5
20260510220519 45 322 4.0 8.0 0.00 0.00 0.00 79 1016.4
20260510220036 46 346 5.0 10.0 0.00 0.00 0.00 79 1016.4
20260510215517 46 340 5.0 10.0 0.00 0.00 0.00 79 1016.4
20260510215015 46 9 6.0 9.0 0.00 0.00 0.00 79 1016.4
20260510214533 46 321 6.0 10.0 0.00 0.00 0.00 80 1016.4
20260510214021 46 314 6.0 10.0 0.00 0.00 0.00 80 1016.4
20260510213519 46 346 6.0 9.0 0.00 0.00 0.00 80 1016.4
20260510213033 46 321 6.0 9.0 0.00 0.00 0.00 79 1016.4
20260510212515 46 321 6.0 9.0 0.00 0.00 0.00 79 1016.4
20260510212018 47 338 6.0 11.0 0.00 0.00 0.00 79 1016.4
20260510211533 47 330 5.0 11.0 0.00 0.00 0.00 79 1016.4
20260510211015 47 342 6.0 9.0 0.00 0.00 0.00 79 1016.5
20260510210514 47 322 6.0 9.0 0.00 0.00 0.00 79 1016.4
20260510210036 47 336 5.0 11.0 0.00 0.00 0.00 79 1016.5
20260510205517 47 327 6.0 11.0 0.00 0.00 0.00 79 1016.5
20260510205015 47 328 6.0 12.0 0.00 0.00 0.00 79 1016.5
20260510204534 48 330 7.0 12.0 0.00 0.00 0.00 79 1016.5
20260510204015 48 322 6.0 9.0 0.00 0.00 0.00 79 1016.4
20260510203515 48 326 6.0 11.0 0.00 0.00 0.00 79 1016.4
20260510203036 48 308 5.0 11.0 0.00 0.00 0.00 79 1016.4
20260510202515 48 314 6.0 9.0 0.00 0.00 0.00 79 1016.4
20260510202017 48 325 6.0 10.0 0.00 0.00 0.00 79 1016.4
20260510201532 49 329 6.0 10.0 0.00 0.00 0.00 79 1016.4
20260510201015 49 330 6.0 10.0 0.00 0.00 0.00 78 1016.4
20260510200518 49 331 4.0 9.0 0.00 0.00 0.00 78 1016.4
20260510200032 49 331 6.0 9.0 0.00 0.00 0.00 78 1016.4
20260510195516 49 321 5.0 9.0 0.00 0.00 0.00 77 1016.4
20260510195015 50 320 6.0 8.0 0.00 0.00 0.00 77 1016.4
20260510194534 50 344 4.0 9.0 0.00 0.00 0.00 77 1016.4
20260510194016 51 323 4.0 9.0 0.00 0.00 0.00 76 1016.3
20260510193516 51 321 4.0 8.0 0.00 0.00 0.00 75 1016.3
20260510193035 52 326 3.0 8.0 0.00 0.00 0.00 74 1016.2
20260510192516 53 321 4.0 8.0 0.00 0.00 0.00 73 1016.3
20260510192015 53 331 2.0 3.0 0.00 0.00 0.00 72 1016.2
20260510191539 52 314 0.0 1.0 0.00 0.00 0.00 75 1016.4
20260510191016 53 310 0.0 1.0 0.00 0.00 0.00 79 1016.3
20260510190515 53 0 0.0 0.0 0.00 0.00 0.00 79 1016.3
20260510190045 54 0 0.0 0.0 0.00 0.00 0.00 80 1016.3
20260510185517 54 0 0.0 1.0 0.00 0.00 0.00 80 1016.2
20260510185015 53 0 0.0 1.0 0.00 0.00 0.00 80 1016.2
20260510184534 53 309 0.0 2.0 0.00 0.00 0.00 79 1016.3
20260510184016 53 0 0.0 2.0 0.00 0.00 0.00 78 1016.3
20260510183518 54 0 0.0 2.0 0.00 0.00 0.00 78 1016.3
20260510183036 54 0 0.0 1.0 0.00 0.00 0.00 78 1016.4
20260510182519 53 0 0.0 6.0 0.00 0.00 0.00 77 1016.2
20260510182018 53 0 1.0 6.0 0.00 0.00 0.00 77 1016.3
20260510181552 53 303 2.0 3.0 0.00 0.00 0.00 79 1016.3
20260510181016 53 304 0.0 3.0 0.00 0.00 0.00 79 1016.3
20260510180516 53 0 0.0 3.0 0.00 0.00 0.00 79 1016.4
20260510180043 53 305 1.0 3.0 0.00 0.00 0.00 78 1016.4
20260510175515 54 306 0.0 2.0 0.00 0.00 0.00 76 1016.4
20260510175015 54 307 0.0 5.0 0.00 0.00 0.00 75 1016.4
20260510174537 55 0 0.0 5.0 0.00 0.00 0.00 76 1016.4
20260510174017 56 360 3.0 5.0 0.00 0.00 0.00 73 1016.4
20260510173516 58 332 1.0 5.0 0.00 0.00 0.00 70 1016.3
20260510173037 58 0 0.0 4.0 0.00 0.00 0.00 63 1016.5
20260510172516 58 322 0.0 6.0 0.00 0.00 0.00 62 1016.5
20260510172020 57 316 2.0 6.0 0.00 0.00 0.00 64 1016.4
20260510171550 57 335 2.0 6.0 0.00 0.00 0.00 62 1016.4
20260510171016 57 285 1.0 3.0 0.00 0.00 0.00 72 1016.5
20260510170516 58 314 1.0 7.0 0.00 0.00 0.00 68 1016.6
20260510170035 59 318 0.0 7.0 0.00 0.00 0.00 60 1016.7
20260510165517 60 352 1.0 5.0 0.00 0.00 0.00 58 1016.7
20260510165022 61 289 1.0 6.0 0.00 0.00 0.00 61 1016.8
20260510164532 60 331 1.0 8.0 0.00 0.00 0.00 63 1016.8
20260510164015 59 293 2.0 10.0 0.00 0.00 0.00 63 1016.8
20260510163515 58 6 4.0 10.0 0.00 0.00 0.00 63 1016.8
20260510163032 57 352 4.0 9.0 0.00 0.00 0.00 62 1016.9
20260510162521 57 339 2.0 6.0 0.00 0.00 0.00 65 1017.0
20260510162015 57 318 0.0 2.0 0.00 0.00 0.00 68 1017.0
20260510161531 57 0 0.0 4.0 0.00 0.00 0.00 69 1016.9
20260510161016 57 325 0.0 4.0 0.00 0.00 0.00 70 1016.9
20260510160520 57 304 0.0 4.0 0.00 0.00 0.00 70 1017.0
20260510160042 57 327 0.0 4.0 0.00 0.00 0.00 69 1017.1
20260510155518 57 321 0.0 4.0 0.00 0.00 0.00 69 1017.1
20260510155015 57 311 0.0 4.0 0.00 0.00 0.00 68 1017.2
20260510154553 57 320 1.0 5.0 0.00 0.00 0.00 68 1017.2
20260510154015 57 317 1.0 7.0 0.00 0.00 0.00 70 1017.3
20260510153514 56 328 2.0 7.0 0.00 0.00 0.00 70 1017.3
20260510153045 56 0 1.0 7.0 0.00 0.00 0.00 70 1017.3
20260510152517 56 337 1.0 8.0 0.00 0.00 0.00 71 1017.3
20260510152019 56 333 3.0 8.0 0.00 0.00 0.00 70 1017.4
20260510151533 56 359 3.0 8.0 0.00 0.00 0.00 71 1017.5
20260510151015 55 333 1.0 8.0 0.00 0.00 0.00 72 1017.6
20260510150521 55 355 4.0 10.0 0.00 0.00 0.00 70 1017.6
20260510150034 55 344 4.0 10.0 0.00 0.00 0.00 72 1017.7
20260510145515 56 358 3.0 10.0 0.00 0.00 0.00 70 1017.6
20260510145015 55 13 2.0 8.0 0.00 0.00 0.00 71 1017.7
20260510144546 56 8 4.0 9.0 0.00 0.00 0.00 70 1017.8
20260510144015 56 349 3.0 9.0 0.00 0.00 0.00 72 1017.8
20260510143521 56 346 4.0 9.0 0.00 0.00 0.00 70 1017.9
20260510143033 57 7 2.0 9.0 0.00 0.00 0.00 70 1018.0
20260510142525 57 333 1.0 12.0 0.00 0.00 0.00 70 1018.0
20260510142017 56 323 4.0 12.0 0.00 0.00 0.00 71 1018.0
20260510141539 56 335 2.0 9.0 0.00 0.00 0.00 71 1018.1
20260510141016 56 338 2.0 9.0 0.00 0.00 0.00 71 1018.1
20260510140515 56 18 3.0 8.0 0.00 0.00 0.00 69 1018.1
20260510140036 56 317 2.0 6.0 0.00 0.00 0.00 71 1018.1
20260510135515 56 340 0.0 9.0 0.00 0.00 0.00 72 1018.1
20260510135016 56 359 3.0 9.0 0.00 0.00 0.00 71 1018.2
20260510134534 57 8 1.0 6.0 0.00 0.00 0.00 70 1018.3
20260510134019 56 323 0.0 8.0 0.00 0.00 0.00 73 1018.3
20260510133515 56 327 4.0 8.0 0.00 0.00 0.00 70 1018.3
20260510133034 56 39 1.0 10.0 0.00 0.00 0.00 72 1018.3
20260510132515 55 330 3.0 10.0 0.00 0.00 0.00 73 1018.3
20260510132018 56 16 5.0 10.0 0.00 0.00 0.00 71 1018.3
20260510131531 56 302 3.0 10.0 0.00 0.00 0.00 73 1018.3
20260510131015 56 309 4.0 10.0 0.00 0.00 0.00 71 1018.4
20260510130515 56 352 2.0 10.0 0.00 0.00 0.00 73 1018.4
20260510130032 56 24 3.0 10.0 0.00 0.00 0.00 73 1018.4
20260510125516 56 340 2.0 9.0 0.00 0.00 0.00 73 1018.4
20260510125016 56 335 3.0 9.0 0.00 0.00 0.00 73 1018.4
20260510124534 56 323 2.0 9.0 0.00 0.00 0.00 75 1018.4
20260510124018 56 308 5.0 13.0 0.00 0.00 0.00 73 1018.5
20260510123520 56 342 6.0 14.0 0.00 0.00 0.00 75 1018.4
20260510123034 56 321 3.0 14.0 0.00 0.00 0.00 74 1018.5
20260510122517 56 356 7.0 14.0 0.00 0.00 0.00 75 1018.5
20260510122015 56 2 5.0 14.0 0.00 0.00 0.00 74 1018.5
20260510121532 56 19 6.0 11.0 0.00 0.00 0.00 75 1018.5
20260510121016 56 359 5.0 11.0 0.00 0.00 0.00 75 1018.5
20260510120516 56 3 3.0 9.0 0.00 0.00 0.00 75 1018.6
20260510120032 55 348 4.0 9.0 0.00 0.00 0.00 76 1018.7
20260510115515 55 331 4.0 10.0 0.00 0.00 0.00 75 1018.8
20260510115015 55 343 3.0 10.0 0.00 0.00 0.00 76 1018.7
20260510114531 55 30 5.0 11.0 0.00 0.00 0.00 78 1018.8
20260510114014 55 348 5.0 11.0 0.00 0.00 0.00 76 1018.9
20260510113515 55 297 5.0 11.0 0.00 0.00 0.00 76 1018.9
20260510113030 55 323 4.0 10.0 0.00 0.00 0.00 77 1019.0
20260510112515 55 17 3.0 11.0 0.00 0.00 0.00 76 1019.1
20260510112015 54 5 6.0 11.0 0.00 0.00 0.00 77 1018.9
20260510111543 55 22 3.0 10.0 0.00 0.00 0.00 76 1019.0
20260510111018 55 310 4.0 10.0 0.00 0.00 0.00 75 1019.0
20260510110515 55 319 5.0 13.0 0.00 0.00 0.00 76 1019.1
20260510110035 55 30 7.0 13.0 0.00 0.00 0.00 76 1019.2
20260510105516 56 5 3.0 10.0 0.00 0.00 0.00 75 1019.1
20260510105016 56 321 4.0 10.0 0.00 0.00 0.00 75 1019.2
20260510104546 56 330 3.0 8.0 0.00 0.00 0.00 74 1019.3
20260510104016 56 6 3.0 15.0 0.00 0.00 0.00 77 1019.4
20260510103515 55 302 5.0 15.0 0.00 0.00 0.00 76 1019.4
20260510103031 55 354 5.0 14.0 0.00 0.00 0.00 76 1019.4
20260510102515 55 329 5.0 10.0 0.00 0.00 0.00 77 1019.4
20260510102019 55 335 5.0 10.0 0.00 0.00 0.00 75 1019.5
20260510101532 56 21 2.0 11.0 0.00 0.00 0.00 76 1019.3
20260510101018 55 350 3.0 11.0 0.00 0.00 0.00 78 1019.4
20260510100515 55 326 4.0 12.0 0.00 0.00 0.00 77 1019.4
20260510100032 55 21 5.0 12.0 0.00 0.00 0.00 77 1019.4
20260510095520 55 45 4.0 12.0 0.00 0.00 0.00 76 1019.4
20260510095020 55 125 2.0 12.0 0.00 0.00 0.00 78 1019.3
20260510094536 54 319 4.0 12.0 0.00 0.00 0.00 78 1019.4
20260510094016 55 318 5.0 12.0 0.00 0.00 0.00 77 1019.5
20260510093519 55 295 3.0 14.0 0.00 0.00 0.00 79 1019.6
20260510093035 54 293 6.0 14.0 0.00 0.00 0.00 80 1019.6
20260510092516 53 34 4.0 11.0 0.00 0.00 0.00 79 1019.7
20260510092015 53 5 5.0 12.0 0.00 0.00 0.00 80 1019.6
20260510091537 53 345 6.0 12.0 0.00 0.00 0.00 79 1019.7
20260510091015 53 25 5.0 11.0 0.00 0.00 0.00 79 1019.8
20260510090516 53 318 3.0 13.0 0.00 0.00 0.00 79 1019.9
20260510090032 53 60 4.0 16.0 0.00 0.00 0.00 80 1019.8
20260510085515 53 30 5.0 16.0 0.00 0.00 0.00 80 1019.8
20260510085015 53 328 3.0 15.0 0.00 0.00 0.00 79 1019.8
20260510084545 52 309 7.0 15.0 0.00 0.00 0.00 78 1019.7
20260510084015 53 3 4.0 11.0 0.00 0.00 0.00 80 1019.6
20260510083515 52 330 5.0 11.0 0.00 0.00 0.00 80 1019.6
20260510083039 52 50 5.0 11.0 0.00 0.00 0.00 80 1019.5
20260510082517 52 42 4.0 14.0 0.00 0.00 0.00 80 1019.6
20260510082015 52 319 6.0 14.0 0.00 0.00 0.00 79 1019.6
20260510081538 52 335 4.0 12.0 0.00 0.00 0.00 79 1019.7
20260510081016 53 304 3.0 12.0 0.00 0.00 0.00 80 1019.7
20260510080516 52 39 4.0 10.0 0.00 0.00 0.00 80 1019.5
20260510080032 52 346 4.0 10.0 0.00 0.00 0.00 80 1019.6
20260510075515 52 310 3.0 9.0 0.00 0.00 0.00 81 1019.5
20260510075019 51 328 2.0 9.0 0.00 0.00 0.00 81 1019.5
20260510074537 51 340 3.0 11.0 0.00 0.00 0.00 82 1019.6
20260510074015 50 30 4.0 11.0 0.00 0.00 0.00 82 1019.5
20260510073515 50 337 4.0 11.0 0.00 0.00 0.00 83 1019.5
20260510073046 49 326 5.0 11.0 0.00 0.00 0.00 83 1019.4
20260510072515 49 334 4.0 10.0 0.00 0.00 0.00 84 1019.4
20260510072016 49 349 3.0 10.0 0.00 0.00 0.00 84 1019.4
20260510071532 49 27 4.0 11.0 0.00 0.00 0.00 84 1019.4
20260510071015 49 18 3.0 11.0 0.00 0.00 0.00 84 1019.4
20260510070515 49 28 2.0 9.0 0.00 0.00 0.00 84 1019.4
20260510070035 49 13 3.0 9.0 0.00 0.00 0.00 84 1019.4
20260510065517 49 311 2.0 9.0 0.00 0.00 0.00 84 1019.3
20260510065018 49 316 1.0 8.0 0.00 0.00 0.00 84 1019.2
20260510064532 49 313 2.0 9.0 0.00 0.00 0.00 83 1019.1
20260510064018 49 336 2.0 9.0 0.00 0.00 0.00 83 1019.2
20260510063517 49 335 2.0 9.0 0.00 0.00 0.00 84 1019.1
20260510063035 49 318 2.0 9.0 0.00 0.00 0.00 83 1019.0
20260510062515 49 1 3.0 9.0 0.00 0.00 0.00 83 1019.1
20260510062015 49 322 3.0 9.0 0.00 0.00 0.00 83 1019.0
20260510061534 49 311 2.0 9.0 0.00 0.00 0.00 83 1019.0
20260510061017 49 299 3.0 10.0 0.00 0.00 0.00 84 1019.0
20260510060516 49 304 4.0 10.0 0.00 0.00 0.00 84 1019.1
20260510060039 48 309 3.0 10.0 0.00 0.00 0.00 84 1019.0
20260510055515 48 300 2.0 11.0 0.00 0.00 0.00 84 1018.9
20260510055015 48 309 3.0 11.0 0.00 0.00 0.00 84 1018.9
20260510054531 48 6 4.0 10.0 0.00 0.00 0.00 84 1019.0
20260510054015 48 14 4.0 10.0 0.00 0.00 0.00 84 1018.9
20260510053516 48 354 3.0 10.0 0.00 0.00 0.00 84 1018.8
20260510053032 48 21 3.0 9.0 0.00 0.00 0.00 84 1018.8
20260510052519 48 319 3.0 9.0 0.00 0.00 0.00 84 1018.8
20260510052017 48 7 2.0 9.0 0.00 0.00 0.00 85 1018.8
20260510051541 48 4 2.0 9.0 0.00 0.00 0.00 85 1018.8
20260510051015 48 333 3.0 7.0 0.00 0.00 0.00 85 1018.9
20260510050516 48 351 2.0 8.0 0.00 0.00 0.00 85 1018.8
20260510050036 48 25 3.0 8.0 0.00 0.00 0.00 86 1018.8
20260510045515 48 8 2.0 8.0 0.00 0.00 0.00 86 1018.8
20260510045016 48 339 4.0 8.0 0.00 0.00 0.00 86 1018.8
20260510044535 48 7 4.0 9.0 0.00 0.00 0.00 86 1018.8
20260510044015 48 331 4.0 9.0 0.00 0.00 0.00 85 1018.9
20260510043516 48 347 3.0 11.0 0.00 0.00 0.00 85 1018.8
20260510043032 48 344 4.0 11.0 0.00 0.00 0.00 85 1018.9
20260510042517 48 351 4.0 7.0 0.00 0.00 0.00 84 1018.8
20260510042015 48 340 3.0 7.0 0.00 0.00 0.00 84 1018.9
20260510041537 48 8 4.0 8.0 0.00 0.00 0.00 83 1018.9
20260510041020 48 329 3.0 9.0 0.00 0.00 0.00 83 1018.9
20260510040515 48 359 4.0 9.0 0.00 0.00 0.00 83 1019.0
20260510040032 48 328 2.0 6.0 0.00 0.00 0.00 82 1019.0
20260510035515 49 330 3.0 7.0 0.00 0.00 0.00 82 1018.9
20260510035017 49 330 2.0 7.0 0.00 0.00 0.00 82 1019.0
20260510034536 49 14 2.0 9.0 0.00 0.00 0.00 81 1018.8
20260510034019 49 358 3.0 11.0 0.00 0.00 0.00 81 1018.9
20260510033517 50 8 4.0 11.0 0.00 0.00 0.00 81 1018.9
20260510033037 50 356 3.0 10.0 0.00 0.00 0.00 81 1018.9
20260510032520 50 330 2.0 10.0 0.00 0.00 0.00 81 1019.0
20260510032019 50 329 2.0 10.0 0.00 0.00 0.00 81 1019.1
20260510031542 50 302 4.0 9.0 0.00 0.00 0.00 80 1019.0
20260510031017 51 330 4.0 12.0 0.00 0.00 0.00 80 1019.0
20260510030515 51 322 4.0 12.0 0.00 0.00 0.00 80 1019.1
20260510030118 51 336 5.0 12.0 0.00 0.00 0.00 80 1019.0
20260510025515 51 319 3.0 13.0 0.00 0.00 0.00 80 1019.1
20260510025015 51 6 4.0 13.0 0.00 0.00 0.00 80 1019.0
20260510024535 51 9 4.0 9.0 0.00 0.00 0.00 80 1019.1
20260510024015 51 25 4.0 11.0 0.00 0.00 0.00 80 1019.1
20260510023520 51 23 4.0 11.0 0.00 0.00 0.00 80 1019.1
20260510023036 51 19 5.0 12.0 0.00 0.00 0.00 80 1019.1
20260510022515 51 14 5.0 12.0 0.00 0.00 0.00 80 1019.2
20260510022017 51 336 4.0 11.0 0.00 0.00 0.00 80 1019.1
20260510021537 51 326 4.0 11.0 0.00 0.00 0.00 80 1019.1
20260510021017 52 341 4.0 10.0 0.00 0.00 0.00 80 1019.0
20260510020518 52 322 3.0 10.0 0.00 0.00 0.00 80 1019.0
20260510020032 52 316 4.0 10.0 0.00 0.00 0.00 80 1019.0
20260510015520 52 13 3.0 9.0 0.00 0.00 0.00 80 1019.0
20260510015016 52 352 4.0 10.0 0.00 0.00 0.00 80 1019.0
20260510014535 52 349 4.0 10.0 0.00 0.00 0.00 80 1019.1
20260510014016 52 359 3.0 9.0 0.00 0.00 0.00 80 1019.0
20260510013516 52 345 3.0 8.0 0.00 0.00 0.00 81 1019.1
20260510013035 52 338 2.0 7.0 0.00 0.00 0.00 81 1019.0
20260510012515 52 332 1.0 7.0 0.00 0.00 0.00 81 1019.1
20260510012015 52 0 2.0 9.0 0.00 0.00 0.00 81 1019.1
20260510011534 53 322 2.0 9.0 0.00 0.00 0.00 81 1019.1
20260510011015 53 336 2.0 8.0 0.00 0.00 0.00 82 1018.9
20260510010515 53 43 2.0 8.0 0.00 0.00 0.00 82 1018.9
20260510010033 53 28 2.0 7.0 0.00 0.00 0.00 82 1018.9
20260510005516 53 323 2.0 8.0 0.00 0.00 0.00 82 1018.9
20260510005018 53 6 1.0 8.0 0.00 0.00 0.00 82 1018.9
20260510004532 53 319 2.0 8.0 0.00 0.00 0.00 82 1018.8
20260510004015 53 348 4.0 9.0 0.00 0.00 0.00 82 1018.8
20260510003515 53 8 3.0 9.0 0.00 0.00 0.00 82 1018.8
20260510003036 53 318 3.0 8.0 0.00 0.00 0.00 82 1019.0
20260510002514 53 328 2.0 7.0 0.00 0.00 0.00 83 1019.1
20260510002019 53 327 1.0 9.0 0.00 0.00 0.00 83 1019.1
20260510001532 53 320 1.0 9.0 0.00 0.00 0.00 83 1019.2
20260510001016 54 333 2.0 9.0 0.00 0.00 0.00 83 1019.1
20260510000519 54 353 3.0 8.0 0.00 0.00 0.00 83 1019.1
20260510000035 54 344 4.0 11.0 0.00 0.00 0.00 83 1018.9
20260509235515 54 11 4.0 11.0 0.00 0.00 0.00 83 1018.9
20260509235016 54 351 5.0 11.0 0.00 0.00 0.00 83 1018.9
20260509234538 54 24 3.0 9.0 0.00 0.00 0.00 83 1018.9
20260509234018 54 335 5.0 10.0 0.00 0.00 0.00 83 1018.8
20260509233514 54 355 5.0 10.0 0.00 0.00 0.00 83 1018.8
20260509233036 54 344 5.0 12.0 0.00 0.00 0.00 83 1018.8
20260509232515 54 8 6.0 12.0 0.00 0.00 0.00 83 1018.7
20260509232015 54 19 5.0 12.0 0.00 0.00 0.00 83 1018.8
20260509231536 54 350 5.0 12.0 0.00 0.00 0.00 83 1018.7
20260509231018 54 321 5.0 11.0 0.00 0.00 0.00 83 1018.8
20260509230516 54 2 5.0 10.0 0.00 0.00 0.00 83 1018.7
20260509230039 54 321 5.0 11.0 0.00 0.00 0.00 83 1018.8
20260509225515 54 344 5.0 11.0 0.00 0.00 0.00 83 1018.8
20260509225017 53 358 5.0 11.0 0.00 0.00 0.00 83 1018.7